Theta_e
315 316 317 318 320 323 325 327 323 324 324 326 326 328 333 333 335 336 334 334 333 335 335 336 335 332 333 331 331 329 330 332 333 334 333 332 333 332 332 331 331 331 331 330 332 332 330 329 329
316 317 317 315 321 323 324 319 326 323 331 328 326 330 333 339 333 334 334 335 335 335 334 334 335 331 330 330 330 332 332 331 332 332 331 331 330 331 330 330 330 330 329 329 331 330 329 328 325
315 317 317 317 318 322 322 318 323 327 327 321 331 329 332 337 332 333 334 336 336 333 333 334 335 328 330 330 331 333 333 330 331 330 329 330 329 329 329 329 329 329 328 328 330 330 328 326 324
316 315 313 319 321 318 316 320 322 329 320 323 328 335 330 331 333 334 335 336 334 333 332 335 335 326 329 327 330 335 333 330 330 329 329 329 328 327 328 327 328 327 327 327 329 329 324 322 321
315 313 318 318 318 314 311 319 324 322 320 325 325 334 334 334 334 334 335 334 331 331 331 335 334 326 328 329 328 333 332 330 326 329 328 328 327 327 327 327 327 327 327 327 326 323 322 322 321
316 313 318 319 317 315 318 318 318 317 320 327 331 333 333 333 335 334 334 332 331 330 332 335 334 326 327 330 329 329 329 329 327 325 328 326 328 328 327 327 327 328 327 326 322 320 320 321 320
317 317 318 316 316 321 321 314 316 319 324 327 329 335 332 332 333 333 332 332 330 330 333 335 333 326 323 329 328 323 327 327 327 328 326 323 324 323 324 325 325 325 325 323 319 318 320 320 320
314 316 317 315 316 322 316 314 314 320 322 324 326 332 337 332 333 332 332 331 331 330 332 334 333 328 322 326 325 320 321 322 324 328 327 326 323 322 322 322 320 318 317 318 317 317 319 320 320
312 318 319 319 315 318 312 315 312 314 326 322 324 327 329 332 333 332 332 329 333 331 331 334 334 330 325 322 325 322 319 319 322 326 327 326 323 321 321 321 321 319 318 317 318 319 318 319 320
315 319 319 316 311 314 312 313 313 319 323 325 327 328 331 333 332 330 327 327 328 331 333 334 334 332 328 324 321 321 320 319 318 324 326 326 324 322 321 320 319 318 319 318 318 319 319 319 318
313 319 313 312 313 311 312 312 312 318 323 322 326 329 331 331 332 329 327 327 327 329 331 333 332 333 330 328 322 319 320 318 317 319 322 322 321 320 320 318 317 316 316 317 317 317 316 316 317
317 312 313 313 310 311 312 309 313 317 317 313 321 329 330 331 330 329 326 325 326 328 330 332 334 332 330 328 326 320 319 319 319 318 319 322 320 319 317 318 318 319 319 317 317 317 317 317 318
318 313 316 315 310 310 309 311 312 313 310 319 326 330 331 331 330 329 328 324 324 326 327 326 332 333 331 325 325 322 319 320 322 322 323 323 322 322 320 321 322 321 321 320 319 320 320 320 320
319 318 319 315 314 310 311 310 311 311 320 324 328 331 331 332 331 329 328 326 323 322 325 324 323 326 328 326 325 322 322 321 323 325 325 324 323 321 323 323 323 323 322 322 322 321 321 321 322
319 321 320 319 311 311 310 311 311 309 323 326 327 328 330 330 329 330 330 328 324 321 322 324 323 321 322 323 325 324 323 322 322 324 326 325 325 323 322 323 323 323 322 322 322 322 322 322 321
324 321 325 321 311 309 311 315 312 309 323 326 326 325 327 329 330 330 331 331 329 323 321 321 322 323 323 322 323 324 324 323 325 327 328 327 327 327 324 324 324 324 324 323 323 323 322 321 321
324 329 323 324 313 312 311 314 310 310 319 323 324 324 326 326 325 330 331 332 332 330 324 322 322 321 322 323 323 323 323 324 325 328 329 328 326 326 325 326 326 325 325 324 323 323 322 323 323
326 328 321 326 314 309 310 311 310 307 317 318 323 323 324 326 326 328 332 332 333 333 331 327 325 325 324 326 328 327 326 326 328 329 328 327 326 326 325 324 325 326 325 325 324 325 325 324 323
323 326 326 312 318 311 309 309 311 308 307 312 319 323 323 324 325 326 328 330 332 333 333 332 331 331 330 329 329 329 328 328 329 330 329 327 326 327 326 324 323 324 324 325 326 326 325 324 322
317 319 320 318 308 308 308 309 309 305 306 305 311 317 322 320 318 323 327 327 328 330 332 332 333 332 332 331 331 330 330 329 330 328 327 328 328 328 327 325 325 326 327 328 328 327 325 323 321
316 313 311 311 309 307 308 311 309 306 304 303 303 307 312 318 320 315 318 325 327 327 329 331 333 333 333 332 331 330 329 330 330 328 328 328 328 328 327 328 327 328 329 328 328 326 325 323 320
321 312 313 310 313 316 309 314 310 308 307 304 305 302 304 307 308 313 313 316 322 327 328 328 330 331 333 333 332 331 330 330 330 328 327 326 325 327 327 327 327 328 328 326 326 325 324 322 320
312 307 307 310 310 308 307 310 307 305 306 305 305 303 303 304 304 305 307 313 318 322 326 328 328 329 330 331 332 332 331 331 333 331 329 326 326 327 328 328 328 327 326 325 324 323 322 320 317
310 313 314 307 307 312 311 310 309 309 305 307 306 305 305 305 302 301 303 306 309 314 319 323 325 326 328 329 330 331 331 331 331 331 328 326 326 327 328 328 327 325 324 323 322 320 317 316 315
312 316 319 319 317 315 303 308 314 308 303 305 307 307 306 304 302 301 300 302 304 306 312 315 317 321 325 327 329 330 331 331 331 332 329 326 326 327 327 326 324 323 322 320 316 315 312 308 306
314 316 314 316 313 311 303 309 308 305 308 303 301 302 301 300 301 301 301 302 304 306 310 313 315 318 321 326 328 329 329 330 330 330 328 325 325 325 325 323 321 318 317 315 312 307 303 297 295
312 317 308 307 297 307 306 305 304 302 303 303 302 302 303 302 301 300 301 302 304 306 309 312 313 313 313 317 326 326 326 328 329 329 327 325 324 323 321 318 315 315 313 308 303 299 295 293 293
311 310 315 310 307 307 307 305 309 305 305 306 305 304 303 302 302 300 301 303 304 306 309 311 311 311 311 310 309 318 324 327 327 329 326 323 323 321 317 313 312 311 304 299 295 294 293 293 292
305 311 308 310 308 309 308 308 302 306 305 306 305 303 303 303 302 301 302 304 305 307 308 310 311 312 311 311 310 309 319 324 325 327 325 323 321 318 314 310 311 303 297 294 293 293 292 292 291
305 307 309 311 308 304 307 309 304 302 304 304 303 303 301 302 302 302 302 303 305 307 308 310 311 311 311 311 311 313 317 321 322 323 323 321 318 312 312 307 301 296 294 293 293 292 292 291 291
Wind_Speed
12 12 5 3 4 4 1 2 1 3 2 1 2 4 4 3 3 2 8 8 21 21 19 16 15 15 16 17 16 16 18 18 16 17 14 13 16 18 20 20 20 18 19 19 20 21 22 21 21
10 7 2 2 4 2 2 2 4 4 5 7 4 2 3 2 2 7 8 21 22 22 19 16 15 16 18 19 18 16 18 19 18 17 16 17 17 19 19 20 19 18 18 19 19 19 19 19 19
7 7 3 4 3 3 3 3 5 3 6 3 4 3 2 3 4 16 10 23 22 21 18 17 15 16 17 18 18 17 17 18 18 17 18 18 18 18 18 19 18 18 18 18 18 19 19 18 18
4 6 3 3 3 3 3 3 4 8 1 3 4 5 2 2 12 9 25 24 22 20 17 16 15 15 16 18 20 18 18 18 18 17 18 17 18 17 17 17 17 17 17 18 18 17 17 17 17
5 2 3 3 3 2 3 2 7 5 5 3 2 4 2 3 5 20 26 24 21 19 19 17 15 14 16 16 17 18 19 17 14 19 17 16 16 16 16 16 16 16 16 16 17 16 15 15 15
3 3 3 2 3 3 2 5 7 3 4 3 4 5 4 3 15 26 24 22 20 20 20 18 15 14 17 16 15 17 19 17 15 17 17 16 17 14 15 15 15 15 15 14 15 14 14 14 14
5 3 4 4 2 3 3 6 6 5 5 4 6 4 2 6 14 24 23 20 19 20 19 19 17 14 15 16 14 16 17 18 18 16 14 15 14 13 15 14 14 14 13 13 12 12 13 14 14
4 4 5 3 4 3 4 5 3 4 4 3 2 5 6 10 21 23 21 18 18 20 19 19 18 15 15 15 14 16 16 16 17 17 15 14 13 13 14 13 12 12 12 11 11 11 11 11 11
3 4 3 6 6 3 5 4 1 3 5 0 1 4 4 24 25 23 17 17 18 19 18 19 18 16 15 14 13 13 15 15 14 14 13 13 12 12 12 11 10 10 10 9 9 10 9 9 9
2 4 8 2 3 1 4 4 8 5 4 1 1 5 19 26 24 20 18 18 18 20 20 20 19 17 15 14 14 13 13 14 14 13 12 11 10 9 9 9 9 8 7 8 8 8 8 7 8
2 4 2 3 3 2 3 3 4 8 3 6 9 10 18 22 21 20 16 17 21 21 23 22 21 19 17 14 14 13 13 13 13 13 12 11 9 9 8 7 7 7 8 8 7 6 7 7 7
5 2 2 2 4 0 3 5 6 6 5 3 7 18 22 17 22 22 18 21 23 23 25 23 23 21 19 16 15 14 14 14 13 12 11 9 9 8 7 7 7 7 7 7 6 6 6 6 7
3 3 1 1 3 2 4 4 4 7 3 4 13 16 18 20 22 19 25 24 23 24 28 27 24 24 21 19 17 16 14 13 12 11 9 9 7 6 6 6 6 6 5 5 5 5 5 5 5
3 4 3 1 6 1 2 1 3 3 5 6 11 14 17 21 23 17 23 25 25 24 27 28 26 24 22 21 21 18 16 15 13 11 9 9 7 6 6 5 4 3 3 3 3 3 4 5 5
2 3 5 4 2 2 3 1 7 2 4 7 7 7 11 17 18 23 25 26 27 27 26 26 27 25 23 21 20 18 16 15 14 12 10 9 6 5 5 4 3 3 2 2 2 3 4 5 7
4 4 2 2 1 3 2 6 4 6 8 9 8 7 8 11 19 19 25 26 27 27 28 27 25 25 24 22 20 19 17 16 14 13 10 9 6 4 5 4 3 3 2 1 1 3 5 6 8
3 3 3 5 2 1 2 5 2 3 7 8 7 7 9 9 10 21 24 27 26 26 27 27 27 26 24 22 20 20 18 17 16 13 12 9 8 7 5 5 5 5 4 4 5 5 6 9 10
6 6 4 6 2 1 3 8 6 2 5 6 7 7 9 11 15 25 28 27 27 26 26 26 27 26 25 24 22 20 19 19 17 17 14 12 11 10 6 7 8 7 6 7 6 7 7 6 9
8 4 10 1 4 1 5 8 11 4 5 7 8 10 10 11 14 22 27 29 29 29 29 30 29 29 28 27 25 23 23 22 21 21 18 16 15 14 12 9 10 10 9 8 8 7 6 5 9
7 6 1 4 1 2 5 10 11 6 6 8 11 8 12 7 7 17 27 29 32 33 34 33 32 31 31 31 30 27 27 25 23 20 18 18 18 16 14 15 15 13 13 12 10 8 4 4 5
4 7 2 2 2 3 4 9 8 5 5 5 7 7 6 13 13 11 19 30 33 36 36 37 36 35 34 33 31 27 21 20 21 21 20 18 18 17 17 17 17 16 14 13 11 9 8 6 3
6 8 6 4 3 4 3 6 6 5 10 7 10 8 12 13 9 11 19 27 34 39 39 37 37 37 36 35 34 33 28 24 27 25 24 18 20 19 18 17 16 14 12 10 10 9 8 7 7
3 11 5 4 2 2 1 2 7 3 7 7 11 12 13 15 14 15 21 30 36 36 39 39 39 39 38 38 37 37 30 31 31 25 26 21 19 19 19 16 14 13 11 9 9 8 8 7 6
7 8 8 5 2 4 6 5 5 8 7 6 7 12 15 14 12 14 23 27 34 34 37 38 39 40 39 38 38 38 34 32 30 27 25 23 20 19 17 15 14 13 11 9 9 9 7 7 6
8 9 3 1 2 7 2 7 13 8 7 8 10 11 14 12 9 12 12 23 30 35 37 35 35 38 38 37 36 36 37 36 34 32 31 27 23 20 18 17 16 14 12 10 10 9 8 9 9
9 7 5 7 5 4 1 8 6 13 11 7 8 8 7 8 8 10 15 20 25 31 34 32 31 32 34 32 32 31 34 34 33 33 34 31 28 25 22 20 18 14 12 13 13 12 12 11 10
4 9 4 3 2 2 5 6 9 8 9 8 10 8 11 11 9 11 10 18 23 27 33 32 29 27 27 29 29 29 28 32 33 33 33 33 29 26 23 21 18 14 14 15 15 15 14 12 11
11 10 4 1 2 4 4 5 6 3 9 7 6 9 6 4 4 7 8 16 23 29 31 26 25 25 24 24 26 29 29 31 33 33 34 33 30 27 24 22 18 18 18 18 16 16 14 11 10
5 7 4 5 4 4 1 5 7 11 10 8 3 5 7 7 7 7 9 17 21 23 23 23 21 20 21 23 25 29 30 31 30 34 34 35 31 29 25 22 21 23 23 20 18 16 14 12 10
8 8 14 6 4 2 3 7 2 7 6 3 6 6 6 6 6 5 7 15 21 23 21 21 21 20 19 19 21 23 27 29 31 35 36 36 32 28 25 24 25 25 22 20 17 16 14 11 10
Wind_Direction
342 328 313 346 62 64 98 203 122 126 131 23 88 140 175 66 147 185 146 157 148 138 136 138 135 128 127 123 119 104 100 97 105 103 105 101 94 89 93 96 98 96 85 86 87 82 78 75 73
340 333 25 77 84 73 263 248 162 179 131 131 85 68 56 101 89 124 133 151 148 139 142 142 135 127 120 119 117 111 105 103 102 105 105 102 97 93 94 99 101 95 90 88 89 84 82 77 75
327 12 70 85 102 162 194 208 154 113 135 110 101 51 110 122 112 147 160 153 148 143 144 143 136 129 129 129 127 120 115 105 107 105 102 100 99 99 98 101 102 97 91 87 90 88 85 79 75
335 25 43 76 169 237 193 165 149 138 247 102 121 85 67 261 156 172 155 157 152 144 144 145 138 132 132 131 127 112 120 105 104 103 107 108 105 103 101 102 103 102 97 90 91 91 86 82 76
45 51 66 69 285 276 264 180 141 144 133 122 158 158 71 111 160 155 157 161 153 145 146 151 142 136 134 126 132 122 115 108 99 112 109 108 109 106 106 104 107 106 99 91 89 89 86 83 77
56 91 78 168 259 281 261 169 144 118 135 135 109 129 130 172 149 157 160 160 154 147 150 154 150 141 140 142 142 137 131 121 107 113 122 119 115 109 103 105 100 100 96 94 89 87 85 84 82
111 95 171 159 244 307 203 161 157 138 136 217 162 97 107 168 161 162 165 163 153 151 156 160 153 147 149 152 146 139 139 138 127 125 119 121 117 110 110 109 101 102 101 93 87 83 82 76 72
111 98 133 174 189 245 157 176 142 131 188 135 203 164 168 172 166 165 164 156 155 156 164 164 158 153 149 153 153 144 144 142 139 139 143 133 117 110 106 108 106 104 102 98 91 87 85 80 72
115 80 172 189 156 218 154 157 86 110 116 296 137 134 147 155 162 159 154 152 154 161 170 171 165 159 156 154 153 150 146 143 143 139 142 134 125 117 112 107 114 114 109 103 94 86 80 78 69
123 140 200 182 188 221 194 161 157 134 123 186 152 57 137 150 159 157 169 169 165 167 174 174 171 168 165 160 159 159 155 149 147 146 146 139 131 122 115 114 113 111 116 116 106 87 79 77 68
278 162 107 45 22 308 202 166 177 125 220 208 192 159 154 159 164 169 186 187 176 172 176 179 177 177 175 173 168 168 164 159 156 156 154 150 145 139 132 118 108 102 93 104 106 87 75 71 63
116 75 127 360 336 283 174 138 176 193 205 324 198 161 163 169 176 178 189 191 182 179 180 184 182 182 183 181 182 177 175 173 167 161 158 157 151 147 141 130 120 109 98 98 98 85 75 61 47
126 173 187 169 17 265 140 193 188 223 301 80 133 159 175 177 181 186 192 197 192 191 186 185 190 189 190 187 188 186 187 182 175 172 172 172 166 150 145 138 124 116 104 96 85 72 58 49 35
131 178 255 26 355 114 161 178 167 216 139 122 153 172 180 183 186 182 192 196 200 199 197 189 191 200 200 195 194 193 190 188 191 190 190 182 177 180 168 155 148 133 113 91 71 45 26 10 5
34 356 0 349 51 7 163 176 227 142 142 157 169 171 184 188 186 191 193 199 202 202 202 203 197 197 205 205 203 202 201 202 200 198 198 197 199 201 197 187 181 163 131 92 53 9 357 350 340
68 50 229 299 50 348 149 263 236 172 156 188 183 176 183 190 195 196 201 208 209 207 206 206 209 206 207 207 210 211 210 213 210 207 207 208 206 221 222 219 213 212 213 229 324 328 323 321 326
7 143 185 285 172 239 202 258 29 163 185 199 202 189 188 198 200 207 209 213 216 216 214 212 211 214 215 217 215 216 217 219 218 216 212 209 215 227 244 259 238 230 229 250 267 279 299 316 332
159 182 233 228 18 147 231 266 274 186 214 229 206 202 207 205 208 207 212 216 221 222 222 221 218 219 219 219 220 222 222 223 220 219 218 222 230 222 228 254 258 239 248 253 270 289 303 324 338
137 149 216 252 245 219 245 247 259 190 207 231 221 212 216 222 221 214 217 218 219 223 224 225 223 223 220 219 218 222 222 222 223 225 225 228 228 225 224 236 246 247 263 264 266 275 290 321 338
122 119 220 309 180 155 277 266 254 198 227 206 215 230 221 203 212 209 217 218 220 222 223 226 227 228 226 226 225 223 226 226 231 235 236 234 231 228 234 238 242 250 253 253 256 256 254 302 341
121 130 87 301 236 195 287 272 256 243 224 209 222 217 207 220 223 217 215 218 220 221 222 225 227 228 230 229 228 225 228 228 231 228 229 235 235 239 240 241 247 246 247 251 245 254 250 215 179
170 142 115 310 316 227 142 285 255 237 236 206 228 204 224 220 223 220 215 221 222 225 225 226 229 230 230 231 228 223 214 210 227 231 228 231 238 239 238 242 246 247 236 232 238 242 233 204 169
131 103 83 244 245 342 106 277 264 203 250 240 234 222 228 226 215 218 219 220 227 226 224 225 228 230 231 230 228 226 219 226 235 231 220 220 228 237 237 238 232 224 227 223 225 208 213 213 202
153 70 38 3 36 279 198 191 228 221 197 231 232 228 226 226 217 221 227 232 233 229 226 223 225 227 229 231 230 226 221 222 224 225 210 209 215 216 219 219 217 217 210 209 215 211 207 198 195
111 127 105 190 211 231 238 190 247 252 226 213 230 233 229 227 217 217 208 217 226 224 219 217 218 223 225 226 227 225 226 224 226 227 211 199 198 204 209 211 209 200 200 207 203 200 189 165 157
168 165 152 176 197 215 260 229 247 216 240 219 226 248 274 260 237 229 224 220 220 217 214 211 211 217 218 216 219 220 225 223 222 225 211 203 206 204 195 194 192 193 204 199 190 177 165 152 145
191 209 167 71 16 65 211 288 297 236 237 227 228 224 251 245 234 235 224 223 224 222 214 211 210 214 217 218 215 218 221 222 221 223 211 205 200 192 189 190 190 189 195 186 175 166 157 153 142
173 146 199 275 230 254 277 272 247 274 249 251 251 224 277 320 265 240 225 224 224 220 211 211 214 217 219 224 222 222 225 226 225 221 211 201 191 190 187 185 184 188 180 173 170 163 153 153 140
135 183 192 174 177 192 274 260 221 206 209 221 301 274 267 265 246 241 217 214 214 206 202 205 210 215 219 224 226 222 220 222 225 216 206 194 190 186 185 185 189 180 175 171 170 163 157 160 152
187 166 186 189 210 214 144 265 184 228 224 241 270 285 292 280 279 242 224 199 187 193 197 206 212 218 221 223 222 220 217 213 215 208 196 190 188 185 183 186 183 176 173 170 171 167 164 166 162